Weather Roundup
Issued by NWS Springfield, MO

Home | Current Version | Previous Version | Text Only | Print | Product List | Glossary On
Versions: 1 2 3 4 5 6 7 8 9 10 11 12 13 14 15 16 17 18 19 20 21 22 23 24 25 26 27 28 29 30 31 32 33 34 35 36 37 38 39 40 41 42 43 44 45 46 47 48 49 50
000
NZUS99 KSGF 220907
HRRSGF

HOURLY WEATHER
NATIONAL WEATHER SERVICE SPRINGFIELD MO
400 AM CDT WED OCT 22 2014

......SGF CWA......

CITY           SKY/WX    TMP DP  RH WIND       PRES   REMARKS
SPRINGFIELD    CLEAR     52  44  74 SE12      30.15S
JOPLIN         CLEAR     54  48  80 SE7       30.12F
WEST PLAINS    CLEAR     46  42  86 E5        30.20R
ROLLA          CLEAR     46  40  79 E8        30.19R
OSAGE BEACH    CLEAR     46  39  76 E5        30.19S
BRANSON        CLEAR     50  46  87 SE8       30.17S

......SURROUNDING SGF CWA......

CITY           SKY/WX    TMP DP  RH WIND       PRES   REMARKS
CHANUTE        CLEAR     56  48  74 SE8       30.09S
PARSONS        PTCLDY    60  53  77 VRB3      30.10F
COFFEYVILLE    CLEAR     54  52  93 E3        30.09S
EMPORIA        CLEAR     54  48  80 SE5       30.09R
GROVE OK       MOCLDY    55  55 100 CALM      30.12S
ROGERS AR      CLEAR     56  52  86 E8        30.14S
SILOAM SPRINGS CLEAR     54  46  76 CALM      30.13S
HARRISON AR    CLEAR     49  47  93 SE6       30.17R
NEAR YELLVILLE CLEAR     46  43  87 CALM      30.18R

......KANSAS AND MISSOURI......

CITY           SKY/WX    TMP DP  RH WIND       PRES   REMARKS
KANSAS CTY INT MOCLDY    54  46  74 SE12      30.13S
DOWNTOWN KC    MOCLDY    57  45  64 E5        30.14S
COLUMBIA       CLEAR     46  40  79 E7        30.21R
SEDALIA        CLEAR     49  43  80 SE5       30.19R
ST JOSEPH      MOCLDY    54  45  71 SE8       30.14R
ST LOUIS       CLEAR     46  40  79 E5        30.25R
SPIRIT OF STL  CLEAR     41  39  93 CALM      30.24R
KIRKSVILLE     CLEAR     43  40  89 E7        30.23S
WICHITA        PTCLDY    61  57  87 S8        30.05S
TOPEKA         MOCLDY    54  46  74 E5        30.11R
OLATHE         CLOUDY    56  47  71 SE10      30.12S

......TENNESSEE......

CITY           SKY/WX    TMP DP  RH WIND       PRES   REMARKS
MEMPHIS        CLEAR     56  46  69 E8        30.14S
NASHVILLE      CLEAR     45  41  86 N5        30.17R

......ARKANSAS.......

CITY           SKY/WX    TMP DP  RH WIND       PRES   REMARKS
FAYETTEVILLE   PTCLDY    46  46 100 CALM      30.14S FOG
FT SMITH       PTCLDY    58  56  93 E7        30.11S
LITTLE ROCK    CLEAR     53  50  89 CALM      30.14S

......OKLAHOMA.......

CITY           SKY/WX    TMP DP  RH WIND       PRES   REMARKS
TULSA          CLEAR     61  59  93 SE5       30.07S
PONCA CITY     CLEAR     66  59  78 S5        30.06S
MCALESTER      PTCLDY    62  60  93 E3        30.09S FOG
OKLAHOMA CITY  CLEAR     58  55  90 CALM      30.08S

......IOWA............

CITY           SKY/WX    TMP DP  RH WIND       PRES   REMARKS
DES MOINES     CLEAR     47  38  71 SE9       30.20S
QUAD CITIES    CLEAR     32  30  92 E3        30.29R

......ILLINOIS........

CITY           SKY/WX    TMP DP  RH WIND       PRES   REMARKS
QUINCY         CLEAR     42  38  85 E3        30.25R
CHICAGO        CLOUDY    46  39  76 N5        30.28R




USA.gov is the U.S. government's official web portal to all federal, state and local government web resources and services.